Wind_Speed
15 17 19 21 23 24 25 27 29 30 31 32 33 34 33 34 34 34 35 35 36 36 36 37 37 38 38 38 39 39 40 41 41 42 42 42 42 43 44 44 45 45 45 46
14 14 16 18 20 22 23 25 26 28 29 31 32 32 33 33 33 33 33 34 34 35 36 37 37 38 38 38 38 38 39 40 40 40 41 41 42 43 43 44 45 46 46 47
11 12 13 15 17 20 22 22 24 26 27 29 30 31 31 32 32 32 32 33 33 34 35 36 36 36 36 37 37 37 38 38 39 39 40 41 42 43 44 45 46 46 47 47
8 10 12 14 15 17 19 21 23 24 25 26 28 30 29 30 31 32 32 32 33 33 33 34 34 35 34 34 35 35 36 36 37 38 39 40 41 42 44 45 46 47 47 47
6 7 9 12 13 15 17 19 20 22 23 24 25 27 27 29 29 30 31 31 32 32 32 32 32 33 33 32 32 33 33 33 34 36 37 38 39 40 41 42 43 43 44 44
5 6 8 9 10 12 14 16 18 19 20 21 22 24 23 25 27 29 29 30 30 31 31 31 30 30 31 31 32 32 32 32 33 34 35 37 38 39 39 39 41 42 43 43
4 5 6 7 8 9 11 13 15 16 18 19 20 21 21 22 24 26 27 28 29 29 29 28 28 28 29 30 31 31 31 31 32 33 34 35 36 37 38 38 39 40 41 42
3 4 5 6 7 8 10 11 12 14 16 16 17 18 18 19 20 22 23 24 25 25 25 26 26 26 27 28 29 31 31 31 32 33 34 34 34 34 35 34 35 36 38 39
3 4 5 7 7 9 10 10 11 13 14 14 15 16 16 17 19 19 20 21 22 23 23 24 25 25 26 27 29 30 30 31 31 32 31 31 31 32 32 32 33 34 35 37
4 5 6 6 7 8 10 10 11 11 12 13 13 14 15 16 17 18 19 20 21 22 23 23 24 24 26 27 28 29 29 29 29 29 29 28 29 30 31 31 31 33 33 33
4 5 6 6 7 8 9 10 10 11 12 13 13 13 14 15 16 18 19 20 21 21 21 22 23 24 24 25 26 26 27 27 27 27 26 26 26 27 28 28 29 30 30 31
5 5 6 6 7 8 9 10 10 11 12 13 14 13 13 14 15 16 18 19 19 20 20 21 21 22 22 22 22 23 23 24 24 24 24 24 24 25 26 26 27 27 27 28
6 7 7 8 8 9 10 11 12 12 13 14 14 13 14 14 15 16 17 18 18 18 19 19 19 19 19 20 20 20 20 21 22 22 22 23 23 23 24 24 25 25 25 25
8 8 9 9 10 10 10 11 12 13 14 14 14 14 15 16 15 16 16 16 17 17 17 17 17 18 18 19 19 19 18 19 21 22 22 21 21 21 22 22 22 23 23 23
10 10 10 10 11 11 11 12 13 14 14 14 14 14 15 16 16 15 16 16 16 17 17 17 17 17 17 18 18 18 18 18 19 19 19 19 20 20 21 21 21 22 22 23
11 12 11 11 12 12 12 12 13 13 13 14 14 14 15 16 16 16 16 16 16 16 16 16 16 16 16 16 16 16 16 16 16 16 17 18 19 19 20 21 22 23 24 24
13 13 13 12 13 13 13 13 13 13 14 14 15 15 15 15 16 16 16 15 15 15 15 15 15 16 16 16 15 15 15 16 16 17 17 19 20 21 22 22 23 23 24 26
15 15 15 15 15 15 14 14 14 15 15 15 15 15 15 15 15 15 15 15 15 15 15 15 15 15 16 16 16 16 16 17 17 18 20 21 22 23 23 24 24 25 26 27
17 17 18 17 17 16 16 16 16 16 16 16 16 16 17 16 15 15 15 15 15 15 15 15 16 16 16 16 17 18 19 19 20 20 21 22 23 24 24 24 25 26 27 28
20 20 20 20 20 19 18 18 19 18 17 17 18 18 18 18 17 16 16 16 16 16 16 16 17 17 18 18 19 20 21 21 21 22 23 23 23 25 26 26 27 28 29 30
22 22 22 22 22 21 21 21 21 20 20 19 19 19 19 18 18 18 18 18 17 17 18 18 19 19 20 21 21 22 23 23 24 24 24 25 26 27 28 28 29 29 30 31
23 23 23 24 23 22 22 23 23 22 22 21 20 20 20 19 20 20 20 20 20 20 20 21 22 22 23 23 24 25 25 26 26 27 27 28 29 29 30 30 30 31 32 32
24 24 25 25 24 23 24 24 25 25 24 23 22 21 21 21 22 22 23 23 23 23 23 24 24 25 25 26 26 27 28 28 28 29 30 30 31 31 32 32 32 32 33 33
25 25 26 26 25 26 26 25 26 26 25 24 24 24 24 24 24 25 25 25 25 26 26 26 26 27 28 28 28 28 29 30 31 31 32 33 33 33 34 34 34 35 35 35
26 27 28 28 28 28 26 27 26 26 26 25 26 26 26 27 27 27 27 27 27 27 27 28 28 29 29 30 30 31 32 32 33 34 34 34 35 35 36 36 37 37 37 38
26 28 29 29 29 29 27 27 27 27 27 27 27 27 27 28 27 28 28 28 29 29 29 30 30 30 31 31 32 33 33 34 35 36 36 36 36 37 37 38 38 39 39 39
Wind_Direction
210 214 217 221 224 228 231 233 235 238 239 240 241 242 244 247 248 249 250 252 254 257 258 259 262 264 265 266 267 267 267 267 267 268 268 268 268 268 267 266 266 266 266 267
211 216 218 221 225 229 234 238 240 241 243 243 243 244 246 248 249 250 252 253 255 258 260 262 264 265 266 267 266 267 267 267 268 268 269 270 269 268 267 266 266 267 268 267
209 216 218 223 225 230 234 239 243 245 246 247 247 246 247 249 250 251 253 256 258 260 261 263 265 266 266 267 267 267 267 268 269 270 270 271 271 270 269 267 267 267 268 268
212 221 227 231 234 234 236 240 245 247 248 249 251 250 249 251 251 252 254 257 259 262 264 265 265 266 266 267 267 267 268 269 269 270 272 273 273 272 271 269 268 268 269 269
218 225 231 237 239 240 241 243 245 247 251 254 255 257 253 254 254 254 256 258 261 263 264 265 266 266 266 267 268 268 270 270 271 272 274 275 276 274 273 272 271 270 269 268
230 234 236 240 242 242 242 243 245 248 252 255 258 261 260 258 257 257 258 260 263 264 264 264 265 266 266 267 268 269 271 273 275 277 277 278 277 276 275 273 271 270 269 269
244 240 238 236 237 238 242 246 249 253 256 260 262 264 264 262 260 260 261 261 262 263 264 264 265 266 268 268 268 270 272 275 277 278 279 279 279 278 277 276 274 273 271 270
261 253 245 243 244 245 249 252 256 261 265 266 266 267 268 266 264 263 262 262 262 263 263 264 265 267 269 269 270 272 274 277 279 281 281 281 281 279 278 277 275 275 274 271
278 266 258 256 253 256 258 260 262 267 271 272 271 271 270 268 266 264 262 261 262 262 263 265 266 268 271 272 272 274 276 278 280 282 282 280 281 280 278 279 278 277 276 275
284 277 270 270 268 264 264 264 267 271 276 280 278 276 274 268 267 265 261 261 262 264 266 267 269 271 274 275 275 276 277 279 282 282 282 283 283 281 281 280 282 281 279 277
300 289 281 275 274 273 270 273 274 275 280 285 285 284 281 277 272 268 266 265 267 268 269 270 272 274 277 279 278 278 278 281 283 284 284 284 286 285 284 283 284 284 282 279
313 302 292 286 281 280 279 279 278 279 283 286 289 293 289 284 278 272 270 270 272 273 273 275 277 279 280 282 283 281 280 282 284 286 285 286 288 287 286 287 288 287 285 283
309 303 298 291 286 284 280 278 279 280 282 286 290 293 290 287 282 279 277 275 276 276 277 279 281 282 283 284 285 285 284 285 287 288 287 288 289 289 289 290 290 290 290 287
305 300 299 297 292 287 283 282 283 284 285 288 290 288 288 288 286 284 284 281 279 278 280 282 283 284 287 288 288 288 288 290 291 291 289 288 291 291 293 294 294 292 291 292
300 298 296 295 293 291 288 288 288 289 291 293 293 289 288 288 289 286 285 283 282 281 281 282 283 286 287 289 290 290 291 293 296 296 295 293 295 296 295 297 297 296 295 295
299 298 296 294 293 294 293 293 292 291 292 294 295 295 292 290 289 288 287 285 283 282 283 283 284 286 288 290 291 291 292 295 298 300 302 301 300 300 299 299 299 299 298 297
298 298 295 294 294 294 296 295 292 292 293 297 299 298 293 291 292 290 289 287 284 285 285 285 287 288 288 290 294 294 294 296 298 301 304 307 305 302 302 302 301 301 300 298
293 295 294 294 293 295 296 294 292 291 291 294 297 296 296 294 293 293 293 291 287 288 287 286 287 290 290 291 293 295 295 296 297 299 301 304 305 305 303 302 301 301 300 299
290 291 292 292 291 293 294 294 294 294 290 290 292 292 293 293 291 291 292 291 289 288 288 286 288 290 291 293 294 295 296 296 297 300 302 304 305 306 305 303 302 302 302 301
287 287 288 289 290 291 292 291 290 291 289 286 289 290 289 289 287 288 289 290 289 286 286 287 289 290 290 292 295 296 298 297 298 300 303 305 306 307 306 304 304 303 302 303
285 285 285 287 288 290 290 290 289 288 288 288 289 287 285 284 283 285 286 288 289 286 285 286 288 290 291 292 295 296 298 296 297 299 301 304 305 306 307 305 303 303 303 304
285 285 284 285 287 288 287 286 285 284 285 286 288 287 285 284 284 284 284 285 285 286 286 285 286 289 290 292 293 294 296 297 298 298 299 301 302 303 305 306 304 303 304 304
282 282 283 283 286 285 284 283 282 283 284 285 287 287 286 284 284 284 284 284 284 285 286 287 286 288 290 292 293 294 295 296 297 298 298 299 300 301 302 304 304 303 303 304
279 278 279 280 281 281 281 282 282 282 283 283 284 285 285 284 284 283 283 284 286 286 286 287 287 288 290 291 293 293 294 295 296 297 297 297 298 299 301 302 303 302 301 302
278 275 275 276 278 278 279 281 283 282 282 282 283 284 285 284 284 283 283 284 285 286 287 287 288 289 290 291 292 292 294 295 296 296 297 297 297 298 300 301 302 302 301 301
276 274 273 274 275 277 279 279 280 280 280 282 283 284 286 285 284 284 284 285 285 285 286 287 288 288 289 290 291 293 294 295 296 296 296 297 297 298 298 299 301 302 302 301
Height
5669 5674 5676 5680 5683 5687 5690 5693 5696 5700 5703 5706 5709 5712 5714 5716 5718 5721 5723 5724 5726 5727 5728 5729 5730 5731 5731 5732 5732 5732 5733 5733 5733 5733 5733 5733 5733 5733 5733 5733 5733 5734 5735 5735
5671 5673 5676 5678 5681 5684 5687 5690 5693 5696 5698 5701 5704 5707 5709 5710 5712 5715 5716 5718 5719 5720 5721 5722 5723 5723 5723 5723 5723 5724 5724 5724 5724 5724 5723 5723 5723 5723 5723 5723 5723 5723 5724 5724
5670 5673 5675 5677 5679 5682 5685 5687 5690 5692 5694 5696 5699 5702 5704 5705 5707 5709 5710 5711 5713 5714 5714 5715 5715 5715 5715 5715 5715 5715 5715 5715 5715 5714 5714 5714 5713 5713 5712 5712 5712 5712 5712 5712
5670 5672 5674 5676 5678 5680 5682 5684 5687 5688 5690 5692 5695 5696 5699 5700 5701 5703 5704 5705 5706 5707 5707 5707 5708 5708 5708 5708 5707 5707 5707 5707 5706 5705 5705 5704 5703 5702 5701 5701 5700 5700 5700 5699
5671 5672 5674 5675 5677 5679 5680 5682 5684 5685 5687 5689 5690 5691 5695 5695 5696 5697 5698 5699 5699 5700 5700 5701 5701 5701 5700 5700 5700 5699 5699 5698 5697 5696 5695 5694 5693 5691 5690 5689 5688 5688 5687 5687
5672 5672 5673 5674 5676 5677 5678 5680 5681 5682 5683 5685 5686 5687 5689 5689 5690 5691 5692 5692 5693 5693 5693 5694 5693 5693 5693 5693 5692 5692 5691 5690 5688 5687 5685 5684 5682 5681 5679 5678 5677 5677 5676 5676
5672 5673 5673 5674 5675 5676 5677 5679 5679 5680 5680 5682 5682 5682 5684 5684 5684 5685 5685 5686 5686 5687 5687 5687 5687 5687 5686 5686 5685 5684 5684 5682 5681 5679 5677 5675 5673 5671 5670 5668 5667 5666 5665 5665
5672 5673 5673 5673 5674 5675 5675 5677 5678 5678 5678 5678 5678 5678 5680 5680 5679 5679 5679 5680 5680 5680 5681 5680 5680 5680 5679 5678 5678 5677 5676 5675 5673 5671 5668 5666 5664 5662 5660 5659 5657 5656 5655 5655
5673 5673 5673 5673 5673 5674 5674 5674 5675 5675 5675 5675 5675 5675 5676 5675 5674 5674 5674 5674 5674 5674 5674 5674 5674 5673 5672 5671 5671 5670 5668 5667 5665 5663 5661 5658 5656 5654 5652 5650 5649 5647 5646 5645
5673 5673 5673 5672 5672 5673 5673 5673 5673 5672 5672 5671 5672 5671 5672 5670 5670 5669 5669 5669 5669 5669 5669 5668 5668 5667 5666 5665 5663 5662 5661 5659 5657 5655 5653 5651 5649 5647 5645 5643 5641 5639 5637 5636
5672 5672 5673 5672 5672 5671 5672 5671 5670 5670 5670 5669 5668 5671 5668 5666 5666 5665 5665 5664 5664 5664 5663 5662 5661 5661 5659 5658 5656 5655 5654 5652 5651 5648 5646 5644 5642 5640 5637 5635 5633 5631 5629 5628
5672 5672 5671 5671 5671 5670 5670 5669 5669 5669 5668 5666 5665 5668 5664 5662 5661 5661 5660 5659 5659 5658 5657 5657 5656 5655 5653 5652 5650 5648 5647 5646 5644 5642 5640 5638 5636 5633 5631 5629 5626 5624 5622 5620
5671 5671 5670 5670 5671 5670 5668 5667 5666 5666 5665 5663 5662 5665 5660 5659 5657 5656 5656 5655 5654 5653 5652 5652 5651 5649 5648 5646 5644 5643 5641 5640 5638 5636 5634 5632 5630 5628 5625 5623 5620 5618 5616 5614
5670 5670 5670 5669 5667 5666 5666 5665 5664 5663 5662 5661 5660 5659 5657 5655 5653 5653 5652 5650 5650 5649 5648 5647 5646 5645 5643 5641 5640 5638 5637 5635 5633 5631 5629 5627 5625 5622 5620 5617 5615 5613 5611 5609
5669 5668 5667 5666 5665 5664 5663 5663 5661 5660 5659 5658 5657 5655 5654 5651 5650 5649 5647 5646 5646 5645 5644 5642 5641 5640 5639 5637 5636 5634 5632 5630 5628 5626 5624 5622 5620 5617 5615 5613 5610 5608 5606 5604
5667 5666 5665 5664 5663 5661 5660 5660 5658 5657 5656 5654 5652 5652 5650 5648 5646 5645 5644 5642 5642 5641 5639 5638 5637 5636 5635 5633 5631 5630 5628 5626 5625 5622 5620 5618 5616 5613 5611 5609 5606 5604 5601 5599
5665 5663 5662 5662 5660 5659 5658 5657 5655 5654 5653 5651 5649 5649 5646 5645 5643 5641 5640 5639 5637 5637 5636 5635 5633 5632 5630 5629 5627 5626 5624 5623 5621 5619 5617 5614 5612 5609 5606 5604 5601 5598 5596 5593
5662 5660 5659 5658 5658 5656 5658 5654 5652 5651 5649 5648 5646 5644 5643 5641 5639 5638 5636 5635 5634 5633 5632 5631 5629 5628 5627 5625 5624 5622 5620 5618 5617 5615 5612 5610 5607 5604 5601 5599 5596 5593 5590 5587
5658 5657 5655 5654 5653 5652 5653 5650 5648 5646 5646 5644 5642 5640 5639 5637 5636 5634 5633 5631 5630 5629 5628 5627 5626 5624 5623 5621 5619 5618 5616 5614 5612 5610 5607 5605 5602 5599 5596 5593 5590 5587 5584 5581
5654 5652 5652 5650 5648 5648 5649 5646 5643 5643 5641 5640 5638 5636 5634 5633 5632 5631 5629 5627 5626 5625 5624 5623 5621 5620 5618 5617 5615 5613 5611 5609 5607 5604 5602 5599 5596 5593 5590 5587 5584 5581 5578 5574
5649 5647 5646 5644 5642 5643 5643 5640 5638 5638 5637 5634 5632 5631 5629 5628 5627 5626 5624 5623 5622 5620 5619 5618 5617 5615 5614 5612 5610 5608 5606 5603 5601 5598 5596 5593 5590 5587 5584 5581 5577 5574 5571 5567
5642 5641 5640 5638 5637 5639 5636 5634 5633 5632 5630 5628 5626 5625 5624 5623 5622 5621 5619 5618 5617 5615 5614 5613 5611 5610 5608 5606 5604 5602 5599 5597 5594 5592 5589 5586 5583 5580 5577 5574 5570 5566 5563 5559
5636 5636 5633 5633 5634 5632 5629 5627 5626 5625 5624 5622 5621 5620 5618 5617 5616 5615 5614 5612 5611 5610 5608 5607 5605 5603 5601 5599 5597 5595 5593 5590 5587 5584 5582 5579 5576 5572 5569 5566 5562 5558 5554 5551
5630 5628 5626 5625 5626 5624 5622 5620 5619 5618 5617 5616 5614 5613 5612 5611 5610 5609 5607 5606 5605 5603 5601 5600 5598 5596 5594 5592 5590 5587 5585 5582 5580 5577 5574 5570 5567 5564 5560 5556 5553 5549 5545 5541
5623 5620 5618 5617 5618 5616 5616 5614 5612 5611 5610 5609 5608 5606 5605 5604 5603 5601 5600 5599 5597 5596 5594 5592 5590 5588 5586 5583 5581 5579 5576 5574 5571 5568 5565 5561 5558 5555 5551 5547 5543 5539 5535 5531
5615 5611 5610 5610 5609 5608 5609 5607 5605 5604 5603 5602 5601 5600 5598 5596 5595 5594 5592 5591 5589 5588 5586 5584 5582 5580 5577 5575 5572 5570 5567 5564 5562 5558 5555 5552 5548 5545 5541 5537 5533 5528 5524 5520